This demonstration page uses our WeatherBlox Daily Observations layout. Learn more.

Left ArrowRight Arrow

38.89511, -77.03637

Hourly Observations for October 2, 2015

Temp ( °F °C ) Dew Point ( °F °C ) Humidity (%) Winds ( mph kmh ) Pressure ( in mb ) Visibility ( mi km ) Precip ( " mm )
12:42 am 00:42 Cloudy with Light Rain 57 14 55 13 94 94 N 16 26 30.09 1019 10 16 N/A
12:52 am 00:52 Cloudy with Light Rain 58 14.4 55 12.8 90 90 NNE 16 26 30.08 1019 10 16 0.01 0.25
1:07 am 01:07 Cloudy with Light Rain 57 14 55 13 94 94 NNE 15 24 30.06 1018 10 16 0.01 0.25
1:52 am 01:52 Cloudy with Light Rain 57 13.9 55 12.8 93 93 NNE 17 28 30.08 1019 10 16 0.01 0.25
2:39 am 02:39 Cloudy with Light Rain 57 14 54 12 88 88 NNE 17 28 30.06 1018 9 14 0.02 0.51
2:52 am 02:52 Cloudy with Light Rain 57 13.9 54 12.2 90 90 NNE 16 26 30.07 1018 8 13 0.03 0.76
3:52 am 03:52 Cloudy with Light Rain 56 13.3 54 12.2 93 93 NNE 18 30 30.07 1018 10 16 0.03 0.76
4:09 am 04:09 Cloudy with Light Rain 55 13 54 12 94 94 NNE 16 26 30.06 1018 10 16 N/A
4:33 am 04:33 Cloudy with Light Rain 55 13 54 12 94 94 N 16 26 30.06 1018 10 16 N/A
4:41 am 04:41 Cloudy with Light Rain 55 13 54 12 94 94 N 15 24 30.06 1018 10 16 N/A
4:52 am 04:52 Cloudy with Light Rain 56 13.3 53 11.7 90 90 N 15 24 30.07 1018 10 16 N/A
5:52 am 05:52 Cloudy with Light Rain 55 12.8 52 11.1 90 90 NNE 16 26 30.07 1018 10 16 0.03 0.76
6:17 am 06:17 Cloudy with Light Rain 55 13 52 11 88 88 NNE 17 28 30.06 1018 9 14 0.02 0.51
6:52 am 06:52 Cloudy with Rain 55 12.8 52 11.1 90 90 NNE 18 30 30.08 1019 5 8 0.04 1.02
7:22 am 07:22 Cloudy with Light Rain 54 12 52 11 94 94 NNE 17 28 30.09 1019 10 16 N/A
7:52 am 07:52 Cloudy with Light Rain 54 12.2 51 10.6 90 90 NNE 16 26 30.09 1019 6 10 0.05 1.27
8:52 am 08:52 Cloudy with Light Rain 53 11.7 50 10 89 89 NNE 18 30 30.10 1019 5 8 0.06 1.52
9:46 am 09:46 Cloudy with Light Rain 54 12 50 10 88 88 NNE 22 35 30.09 1019 9 14 N/A
9:52 am 09:52 Cloudy with Light Rain 53 11.7 50 10 89 89 NNE 18 30 30.10 1019 8 13 0.04 1.02
10:52 am 10:52 Cloudy with Light Rain 53 11.7 50 10 89 89 NNE 20 31 30.10 1019 8 13 0.02 0.51
11:16 am 11:16 Cloudy with Rain 52 11 50 10 94 94 NNE 20 31 30.09 1019 4 6 N/A
11:52 am 11:52 Cloudy with Rain 52 11.1 50 10 93 93 NNE 15 24 30.10 1019 3 5 0.10 2.54
12:52 pm 12:52 Cloudy with Light Rain 52 11.1 49 9.4 89 89 NNE 22 35 30.09 1019 6 10 0.10 2.54
1:36 pm 13:36 Cloudy with Rain 52 11 50 10 94 94 NNE 22 35 30.09 1019 3 5 N/A
1:43 pm 13:43 Cloudy with Light Rain 52 11 50 10 94 94 NNE 21 33 30.09 1019 3 5 0.05 1.27
1:52 pm 13:52 Cloudy with Light Rain 52 11.1 50 10 93 93 NNE 18 30 30.08 1019 4 6 0.06 1.52
2:52 pm 14:52 Cloudy with Rain 52 11.1 50 10 93 93 NNE 15 24 30.09 1019 5 8 0.08 2.03
3:52 pm 15:52 Cloudy with Light Rain 52 11.1 50 10 93 93 NNE 18 30 30.08 1019 10 16 0.06 1.52
4:21 pm 16:21 Cloudy with Rain 52 11 50 10 94 94 NNE 22 35 30.09 1019 5 8 0.02 0.51
4:42 pm 16:42 Cloudy with Light Rain 54 12 50 10 88 88 NNE 22 35 30.09 1019 6 10 N/A
4:52 pm 16:52 Cloudy with Light Rain 53 11.7 50 10 89 89 NNE 23 37 30.06 1018 5 8 0.05 1.27
5:27 pm 17:27 Cloudy with Light Rain 52 11 50 10 94 94 NNE 18 30 30.06 1018 6 10 0.02 0.51
5:52 pm 17:52 Cloudy with Light Rain 52 11.1 50 10 93 93 NNE 23 37 30.05 1018 8 13 0.03 0.76
6:52 pm 18:52 Cloudy with Light Rain 52 11.1 49 9.4 89 89 NNE 20 31 30.06 1018 5 8 0.04 1.02
7:52 pm 19:52 Cloudy with Rain 51 10.6 49 9.4 92 92 NNE 14 22 30.12 1020 3 4 0.03 0.76
8:43 pm 20:43 Cloudy with Light Rain 52 11 48 9 88 88 NNE 17 28 30.12 1020 6 10 0.05 1.27
8:52 pm 20:52 Cloudy with Light Rain 51 10.6 49 9.4 92 92 NNE 18 30 30.12 1020 7 11 0.06 1.52
9:52 pm 21:52 Cloudy with Light Rain 51 10.6 49 9.4 92 92 NNE 16 26 30.12 1020 5 8 0.01 0.25
10:13 pm 22:13 Cloudy with Light Rain 50 10 48 9 94 94 NNE 17 28 30.12 1020 4 6 N/A
10:26 pm 22:26 Cloudy with Light Rain 50 10 48 9 94 94 NNE 17 28 30.12 1020 4 6 N/A
10:35 pm 22:35 Cloudy with Light Rain 50 10 48 9 94 94 NNE 17 28 30.12 1020 4 6 0.01 0.25

Powered by AerisWeather